Flag for U.S.A. Weather past 2 weeks in Birmingham, Alabama, U.S.A.

Now
81 °F

Passing clouds.


Feels Like: 83 °F
Forecast: 75 / 87 °F
Wind: 5 mph from Southeast

Location: Birmingham International Airport

Current Time: Aug 30, 2014 at 1:40:19 AM

Latest Report: Aug 30, 2014 at 12:53 AM


Visibility: 10 mi

Pressure: 30.05 "Hg

Humidity: 56%

Dew point: 64 °F

Location of BirminghamLocation

Historic Weather in Birmingham — Graph

°F

Birmingham temperature yesterday

Maximum temperature yesterday: 92 °F (at 3:53 PM)
Minimum temperature yesterday: 67 °F (at 4:53 AM)
Average temperature yesterday: 81 °F

Past Weeks' High & Low Weather Summary

 TemperatureHumidityPressure
High95 °F (Aug 21, 2:53 PM)97% (Aug 18, 9:53 PM)30.14 "Hg (Aug 18, 9:53 PM)
Low63 °F (Aug 15, 4:53 AM)23% (Aug 28, 4:53 PM)29.88 "Hg (Aug 19, 1:53 AM)
Average81 °F64%30.01 "Hg
* Reported Aug 14 11:53 PM — Aug 29 11:53 PM, Birmingham, Weather by CustomWeather, © 2014

Note: Actual official high and low records may vary slightly from our data, if they occured in-between our weather recording intervals... More about our weather records

Advertising

Birmingham weather history for previous 24 hours

 ConditionsComfort  
Time TempWeatherWind HumidityBarometerVisibility
11:53 PM
Aug 29
81 °FPassing clouds.3 mph54%30.05 "Hg10 mi
10:53 PM82 °FClear.5 mph51%30.05 "Hg10 mi
9:53 PM83 °FClear.6 mph48%30.04 "Hg10 mi
8:53 PM83 °FPassing clouds.5 mph48%30.02 "Hg10 mi
7:53 PM85 °FScattered clouds.3 mph45%29.98 "Hg10 mi
6:53 PM88 °FScattered clouds.6 mph38%29.98 "Hg10 mi
5:53 PM90 °FScattered clouds.9 mph35%29.99 "Hg10 mi
4:53 PM91 °FScattered clouds.8 mph33%29.99 "Hg10 mi
3:53 PM92 °FScattered clouds.8 mph32%29.98 "Hg10 mi
1:53 PM89 °FPartly sunny.13 mph38%30.03 "Hg10 mi
12:53 PM91 °FPartly sunny.15 mph37%30.03 "Hg10 mi
11:53 AM90 °FPartly sunny.13 mph35%30.05 "Hg10 mi
10:53 AM87 °FPartly sunny.9 mph40%30.06 "Hg10 mi
9:53 AM87 °FPartly sunny.6 mph46%30.04 "Hg10 mi
8:53 AM81 °FPartly sunny.3 mph54%30.05 "Hg10 mi
7:53 AM77 °FPartly sunny.No wind60%30.04 "Hg10 mi
6:53 AM68 °FPassing clouds.No wind78%30.03 "Hg10 mi
5:53 AM67 °FPassing clouds.No wind81%30.02 "Hg10 mi
4:53 AM67 °FPassing clouds.No wind81%30.01 "Hg10 mi
3:53 AM68 °FPassing clouds.No wind76%30.00 "Hg10 mi
2:53 AM68 °FClear.No wind78%30.00 "Hg10 mi
1:53 AM70 °FClear.No wind73%30.00 "Hg10 mi
Weather by CustomWeather, © 2014

See weather overviewHow to use our weather pages